IRIDIUM 33 DEB, 33960

Orbit data source: Space-Track

IRIDIUM 33 DEB, 33960 is space debris in LEO originally from a launch on Sun, 14 Sep 1997 UTC launched from the Tyuratam Missile And Space Complex (TTMTR). The debris from Iridium 33, an American commercial communications satellite, has been tracked extensively since its accidental collision with the defunct Russian satellite Cosmos 2251 in 2009. This event, occurring at high speed in low Earth orbit (LEO), generated thousands of pieces of space debris, significantly increasing the risk of further collisions. The Iridium 33 debris cloud has impacted space traffic management and orbital debris mitigation strategies, making it a subject of ongoing study in space situational awareness.

Loading next visibility...
Identifier
33960, 1997-051BV
Orbit
LEO
Country
Flag of USUS
Related business
Manufacturer
Unknown
Mission
Spacecraft
Bus & Motor
Unknown
Mass
Unknown
Launch date (UTC)
1997-09-14 (28 years ago)
Launch vehicle
Unknown
Launch site
Tyuratam Missile And Space Complex (TTMTR)
Object type
Payload
Rocket body
Debris
Shape & HBR
Unknown shape, 0.1 m
Radar Cross Section
Small (<0.1 m²)

Expand to show TLE details & history
Last TLE update: 15 hours ago

TLE from 15 hours ago
0 IRIDIUM 33 DEB
1 33960U 97051BV  25350.85511652  .00020546  00000-0  23777-2 0  9996
2 33960  86.2536 287.5735 0007453  55.4935 358.3261 14.85403921889280
Epoch: 2025-12-16T20:31Z
TLE epoch observation values (Epoch: 2025-12-16T20:31:22.067Z)
Latitude
53.75147°
Longitude
-100.90586°
Altitude
616.043 km
Speed
7.559 km/s
True Right ascension
19h 30m 40s
True Declination
53° 35' 02"
Sunlit
Object was in daylight at epoch
Visualization orbit readout
Latitude
Unknown
Longitude
Unknown
Altitude
Unknown
Speed
Unknown
Apparent Right ascension
Unknown
Apparent Declination
Unknown
Sunlit
N/A
Visualization observer readout
Local Sidereal Time
10:16:14
Azimuth
Unknown
Elevation
Unknown
Doppler factor
Unknown
Orbital elements
Apogee altitude
614.422 km
Perigee altitude
604.006 km
Semi-major axis
6,987.351 km
Eccentricity
0.00075
Inclination
86.2536°
RAAN
287.5735°
Arg. of periapsis
55.4935°
True anomaly
358.3236°
Mean anomaly
358.3261°
Eccentric anomaly
358.32485°
Mean motion
3.71599 °/min
Orbital period
96.88 mins
BSTAR
0.0023777
Loading maneuver chart data...
Computing Atmospheric mass density...

Documentation

Showing up to 5 results
|